TimeMDT,TemperatureF,Dew PointF,Humidity,Sea Level PressureIn,VisibilityMPH,Wind Direction,Wind SpeedMPH,Gust SpeedMPH,PrecipitationIn,Events,Conditions,WindDirDegrees,DateUTC
12:15 AM,55.4,50.0,82,30.12,10.0,Calm,Calm,-,N/A,,Scattered Clouds,0,2014-06-08 06:15:00
12:35 AM,55.4,51.8,88,30.10,10.0,Calm,Calm,-,N/A,,Clear,0,2014-06-08 06:35:00
12:55 AM,55.4,51.8,88,30.09,10.0,Calm,Calm,-,N/A,,Partly Cloudy,0,2014-06-08 06:55:00
1:15 AM,55.4,50.0,82,30.09,10.0,Calm,Calm,-,N/A,,Partly Cloudy,0,2014-06-08 07:15:00
1:35 AM,55.4,51.8,88,30.08,10.0,Calm,Calm,-,N/A,,Partly Cloudy,0,2014-06-08 07:35:00
1:55 AM,55.4,51.8,88,30.07,10.0,Calm,Calm,-,N/A,,Mostly Cloudy,0,2014-06-08 07:55:00
2:15 AM,55.4,50.0,82,30.06,10.0,NNE,3.5,-,N/A,,Scattered Clouds,30,2014-06-08 08:15:00
2:35 AM,55.4,48.2,77,30.05,10.0,East,5.8,-,N/A,,Partly Cloudy,80,2014-06-08 08:35:00
2:55 AM,55.4,50.0,82,30.04,10.0,East,3.5,-,N/A,,Clear,80,2014-06-08 08:55:00
3:15 AM,55.4,48.2,77,30.03,10.0,Calm,Calm,-,N/A,,Clear,0,2014-06-08 09:15:00
3:35 AM,53.6,48.2,82,30.03,10.0,Calm,Calm,-,N/A,,Partly Cloudy,0,2014-06-08 09:35:00
3:55 AM,55.4,50.0,82,30.02,10.0,Calm,Calm,-,N/A,,Partly Cloudy,0,2014-06-08 09:55:00
4:15 AM,55.4,50.0,82,30.01,10.0,Calm,Calm,-,N/A,,Clear,0,2014-06-08 10:15:00
4:35 AM,55.4,50.0,82,30.02,10.0,Calm,Calm,-,N/A,,Partly Cloudy,0,2014-06-08 10:35:00
4:55 AM,55.4,51.8,88,30.02,10.0,Calm,Calm,-,N/A,,Scattered Clouds,0,2014-06-08 10:55:00
5:15 AM,55.4,51.8,88,30.02,10.0,Calm,Calm,-,N/A,,Clear,0,2014-06-08 11:15:00
5:35 AM,55.4,51.8,88,30.02,10.0,Calm,Calm,-,N/A,,Clear,0,2014-06-08 11:35:00
5:55 AM,55.4,51.8,88,30.01,10.0,NNW,3.5,-,N/A,,Clear,340,2014-06-08 11:55:00
6:15 AM,55.4,50.0,82,30.01,10.0,NW,5.8,-,N/A,,Clear,320,2014-06-08 12:15:00
6:35 AM,55.4,51.8,88,30.01,10.0,NNW,6.9,-,N/A,,Clear,340,2014-06-08 12:35:00
6:55 AM,55.4,50.0,82,30.00,10.0,NW,5.8,-,N/A,,Clear,310,2014-06-08 12:55:00
7:15 AM,55.4,51.8,88,30.00,10.0,NNW,5.8,-,N/A,,Clear,330,2014-06-08 13:15:00
7:35 AM,57.2,51.8,82,30.00,10.0,NNW,8.1,-,N/A,,Clear,330,2014-06-08 13:35:00
7:55 AM,57.2,51.8,82,30.00,10.0,NNW,8.1,-,N/A,,Scattered Clouds,340,2014-06-08 13:55:00
8:15 AM,57.2,51.8,82,30.00,10.0,North,8.1,-,N/A,,Scattered Clouds,360,2014-06-08 14:15:00
8:35 AM,59.0,51.8,77,30.00,10.0,North,10.4,-,N/A,,Partly Cloudy,10,2014-06-08 14:35:00
8:55 AM,59.0,51.8,77,30.01,10.0,North,9.2,-,N/A,,Scattered Clouds,350,2014-06-08 14:55:00
9:15 AM,59.0,51.8,77,30.00,10.0,North,9.2,-,N/A,,Partly Cloudy,350,2014-06-08 15:15:00
9:35 AM,59.0,51.8,77,30.00,10.0,North,8.1,-,N/A,,Clear,350,2014-06-08 15:35:00
9:55 AM,60.8,51.8,72,29.99,10.0,North,9.2,-,N/A,,Clear,360,2014-06-08 15:55:00
10:15 AM,62.6,53.6,72,29.98,10.0,North,5.8,-,N/A,,Clear,10,2014-06-08 16:15:00
10:35 AM,62.6,53.6,72,29.97,10.0,North,8.1,-,N/A,,Scattered Clouds,350,2014-06-08 16:35:00
10:55 AM,64.4,51.8,64,29.97,10.0,NNW,10.4,-,N/A,,Scattered Clouds,340,2014-06-08 16:55:00
11:35 AM,66.2,53.6,64,29.97,10.0,NNW,15.0,20.7,N/A,,Clear,340,2014-06-08 17:35:00
11:55 AM,66.2,51.8,60,29.97,10.0,NNW,12.7,-,N/A,,Clear,330,2014-06-08 17:55:00
12:15 PM,66.2,51.8,60,29.97,10.0,NNW,10.4,-,N/A,,Clear,340,2014-06-08 18:15:00
12:35 PM,64.4,51.8,64,29.97,10.0,NW,9.2,-,N/A,,Clear,320,2014-06-08 18:35:00
12:55 PM,64.4,51.8,64,29.97,10.0,West,10.4,-,N/A,,Clear,280,2014-06-08 18:55:00
1:15 PM,64.4,53.6,68,29.95,10.0,West,6.9,-,N/A,,Partly Cloudy,270,2014-06-08 19:15:00
1:35 PM,66.2,48.2,52,29.92,10.0,NW,8.1,-,N/A,,Partly Cloudy,310,2014-06-08 19:35:00
1:55 PM,66.2,53.6,64,29.90,10.0,West,6.9,-,N/A,,Clear,270,2014-06-08 19:55:00
2:15 PM,69.8,51.8,53,29.91,10.0,North,13.8,19.6,N/A,,Scattered Clouds,350,2014-06-08 20:15:00
2:35 PM,64.4,44.6,49,29.93,10.0,NNW,28.8,36.8,N/A,,Mostly Cloudy,330,2014-06-08 20:35:00
2:55 PM,60.8,46.4,59,29.95,10.0,NW,23.0,26.5,N/A,,Mostly Cloudy,320,2014-06-08 20:55:00
3:15 PM,55.4,46.4,72,29.96,10.0,NNW,21.9,32.2,N/A,,Partly Cloudy,340,2014-06-08 21:15:00
3:35 PM,55.4,48.2,77,29.96,10.0,North,23.0,29.9,N/A,,Partly Cloudy,350,2014-06-08 21:35:00
3:55 PM,53.6,48.2,82,29.99,7.0,NNW,21.9,28.8,N/A,,Mostly Cloudy,340,2014-06-08 21:55:00
4:15 PM,53.6,48.2,82,30.00,10.0,North,24.2,31.1,0.01,,Overcast,360,2014-06-08 22:15:00
4:35 PM,51.8,48.2,88,30.02,10.0,North,17.3,25.3,0.04,,Overcast,360,2014-06-08 22:35:00
4:55 PM,51.8,46.4,82,30.03,10.0,North,17.3,21.9,0.06,,Mostly Cloudy,360,2014-06-08 22:55:00
5:15 PM,51.8,46.4,82,30.06,10.0,North,24.2,31.1,0.01,,Partly Cloudy,360,2014-06-08 23:15:00
5:35 PM,51.8,46.4,82,30.07,10.0,NNW,18.4,23.0,0.01,,Clear,340,2014-06-08 23:35:00
5:55 PM,51.8,46.4,82,30.07,10.0,North,19.6,-,0.01,,Clear,350,2014-06-08 23:55:00
6:15 PM,51.8,44.6,76,30.07,10.0,North,20.7,29.9,N/A,,Clear,350,2014-06-09 00:15:00
6:35 PM,51.8,42.8,71,30.08,10.0,North,21.9,29.9,N/A,,Clear,360,2014-06-09 00:35:00
6:55 PM,51.8,42.8,71,30.09,10.0,North,20.7,25.3,N/A,,Clear,360,2014-06-09 00:55:00
7:15 PM,51.8,41.0,67,30.10,10.0,North,18.4,26.5,N/A,,Clear,360,2014-06-09 01:15:00
7:35 PM,51.8,41.0,67,30.11,10.0,North,19.6,25.3,N/A,,Scattered Clouds,360,2014-06-09 01:35:00
7:55 PM,50.0,41.0,71,30.10,10.0,North,17.3,25.3,N/A,,Clear,360,2014-06-09 01:55:00
8:35 PM,50.0,39.2,66,30.11,10.0,North,21.9,-,N/A,,Clear,360,2014-06-09 02:35:00
8:55 PM,50.0,39.2,66,30.12,10.0,North,13.8,-,N/A,,Clear,360,2014-06-09 02:55:00
9:15 PM,50.0,39.2,66,30.13,10.0,North,13.8,-,N/A,,Clear,360,2014-06-09 03:15:00
9:35 PM,50.0,39.2,66,30.14,10.0,North,12.7,-,N/A,,Clear,360,2014-06-09 03:35:00
9:55 PM,50.0,41.0,71,30.16,10.0,North,13.8,-,N/A,,Clear,360,2014-06-09 03:55:00
10:15 PM,50.0,41.0,71,30.16,10.0,North,11.5,-,N/A,,Clear,360,2014-06-09 04:15:00
10:35 PM,50.0,41.0,71,30.18,10.0,North,12.7,-,N/A,,Clear,10,2014-06-09 04:35:00
10:55 PM,50.0,39.2,66,30.18,10.0,North,15.0,-,N/A,,Partly Cloudy,350,2014-06-09 04:55:00
11:15 PM,51.8,39.2,62,30.19,10.0,NNW,15.0,19.6,N/A,,Clear,340,2014-06-09 05:15:00
11:35 PM,51.8,37.4,58,30.19,10.0,NNW,12.7,18.4,N/A,,Clear,340,2014-06-09 05:35:00
11:55 PM,51.8,35.6,54,30.18,10.0,NNW,17.3,23.0,N/A,,Clear,340,2014-06-09 05:55:00